YBBN

Brisbane Airport

Airport
ICAO code
YBBN
IATA Code
BNE
Summary
ICAO Region
APAC
ICAO Territory
Location

Brisbane, Queensland

Serving
Brisbane
Elevation
13 ft
Coordinates
27° 23' 30" S , 153° 7' 21" E
KCC
Metar
Observation
YBBN 061530Z 12007KT 9999 FEW029 23/18 Q1013
Station
Brisbane Airport M. O
Date/Time
2023-02-06 15:30:00
Wind direction
120°
Wind speed
07 kts
Lowest cloud amount
few clouds
Temperature
23°C
Dew point
18°C
Humidity
73%
QNH
1013 hPa
Weather condition
n/a

Description

Serves the city of Brisbane and the surrounding metropolitan area.

Climatology

Humid “subtropical” climate (Köppen climate classification Cfa) - characterized by hot, humid summers and cool winters. Significant amounts of precipitation occur in all seasons in most areas. Most summer rainfall occurs during thunderstorms and occasional tropical storms.

SKYbrary Partners:

Safety knowledge contributed by: